DMSP 5D-2 F13 DEB, 40517

Orbit data source: Space-Track

DMSP 5D-2 F13 DEB, 40517 is space debris in SSO originally from a launch on Fri, 24 Mar 1995 UTC launched from the Air Force Western Test Range (AFWTR). Debris objects in space refer to the collection of defunct objects orbiting the Earth. Examples of debris include non-operational satellites, rocket bodies, and fragments generated from explosions, collisions, or faulty payload assembly.

Loading next visibility...
Identifier
40517, 1995-015DD
Orbit
SSO
Country
Flag of USUS
Related business
Manufacturer
Unknown
Mission
Spacecraft
Bus & Motor
Unknown
Mass
Unknown
Launch date (UTC)
1995-03-24 (31 years ago)
Launch vehicle
Unknown
Launch site
Air Force Western Test Range (AFWTR)
Object type
Payload
Rocket body
Debris
Shape & HBR
Unknown shape, 0.1 m
Radar Cross Section
Small (<0.1 m²)

Expand to show TLE details & history
Last TLE update: 6 days ago

TLE from 6 days ago
0 DMSP 5D-2 F13 DEB
1 40517U 95015DD  25283.08084813  .00007075  00000-0  18650-2 0  9990
2 40517  98.6001 325.5124 0021077 168.6071 191.5603 14.49153648549885
Epoch: 2025-10-10T01:56Z
TLE epoch observation values (Epoch: 2025-10-10T01:56:25.278Z)
Latitude
-0.00004°
Longitude
-82.52473°
Altitude
746.051 km
Speed
7.474 km/s
True Right ascension
21h 42m 02s
True Declination
0° 00' 00"
Sunlit
Object was in full shadow at epoch
Visualization orbit readout
Latitude
Unknown
Longitude
Unknown
Altitude
Unknown
Speed
Unknown
Apparent Right ascension
Unknown
Apparent Declination
Unknown
Sunlit
N/A
Visualization observer readout
Local Sidereal Time
12:41:20
Azimuth
Unknown
Elevation
Unknown
Doppler factor
Unknown
Orbital elements
Apogee altitude
740.501 km
Perigee altitude
710.556 km
Semi-major axis
7,103.666 km
Eccentricity
0.00211
Inclination
98.6001°
RAAN
325.5124°
Arg. of periapsis
168.6071°
True anomaly
191.51202°
Mean anomaly
191.5603°
Eccentric anomaly
191.53615°
Mean motion
3.6251 °/min
Orbital period
99.31 mins
BSTAR
0.001865

Documentation

Showing up to 5 results
|